Year,Month,Day,Hour,Minute,Value (Times are PST for temperature in C)
2016,03,29,00,00,5.60
2016,03,29,00,01,5.60
2016,03,29,00,02,5.60
2016,03,29,00,03,5.60
2016,03,29,00,04,5.60
2016,03,29,00,05,5.60
2016,03,29,00,06,5.60
2016,03,29,00,07,5.60
2016,03,29,00,08,5.60
2016,03,29,00,09,5.70
2016,03,29,00,10,5.70
2016,03,29,00,11,5.70
2016,03,29,00,12,5.70
2016,03,29,00,13,5.70
2016,03,29,00,14,5.70
2016,03,29,00,15,5.70
2016,03,29,00,16,5.70
2016,03,29,00,17,5.70
2016,03,29,00,18,5.70
2016,03,29,00,19,5.70
2016,03,29,00,20,5.70
2016,03,29,00,21,5.70
2016,03,29,00,22,5.70
2016,03,29,00,23,5.70
2016,03,29,00,24,5.70
2016,03,29,00,25,5.70
2016,03,29,00,26,5.70
2016,03,29,00,27,5.70
2016,03,29,00,28,5.60
2016,03,29,00,29,5.60
2016,03,29,00,30,5.60
2016,03,29,00,31,5.60
2016,03,29,00,32,5.60
2016,03,29,00,33,5.60
2016,03,29,00,34,5.60
2016,03,29,00,35,5.50
2016,03,29,00,36,5.50
2016,03,29,00,37,5.40
2016,03,29,00,38,5.40
2016,03,29,00,39,5.40
2016,03,29,00,40,5.40
2016,03,29,00,41,5.40
2016,03,29,00,42,5.30
2016,03,29,00,43,5.30
2016,03,29,00,44,5.30
2016,03,29,00,45,5.30
2016,03,29,00,46,5.30
2016,03,29,00,47,5.30
2016,03,29,00,48,5.30
2016,03,29,00,49,5.30
2016,03,29,00,50,5.30
2016,03,29,00,51,5.30
2016,03,29,00,52,5.30
2016,03,29,00,53,5.30
2016,03,29,00,54,5.30
2016,03,29,00,55,5.30
2016,03,29,00,56,5.30
2016,03,29,00,57,5.30
2016,03,29,00,58,5.30
2016,03,29,00,59,5.30
2016,03,29,01,00,5.30
2016,03,29,01,01,5.30
2016,03,29,01,02,5.30
2016,03,29,01,03,5.30
2016,03,29,01,04,5.20
2016,03,29,01,05,5.20
2016,03,29,01,06,5.20
2016,03,29,01,07,5.20
2016,03,29,01,08,5.20
2016,03,29,01,09,5.20
2016,03,29,01,10,5.20
2016,03,29,01,11,5.10
2016,03,29,01,12,5.10
2016,03,29,01,13,5.10
2016,03,29,01,14,5.10
2016,03,29,01,15,5.10
2016,03,29,01,16,5.10
2016,03,29,01,17,5.10
2016,03,29,01,18,5.10
2016,03,29,01,19,5.00
2016,03,29,01,20,5.00
2016,03,29,01,21,5.00
2016,03,29,01,22,5.00
2016,03,29,01,23,5.00
2016,03,29,01,24,5.00
2016,03,29,01,25,5.00
2016,03,29,01,26,5.00
2016,03,29,01,27,5.10
2016,03,29,01,28,5.10
2016,03,29,01,29,5.10
2016,03,29,01,30,5.10
2016,03,29,01,31,5.10
2016,03,29,01,32,5.10
2016,03,29,01,33,5.20
2016,03,29,01,34,5.20
2016,03,29,01,35,5.20
2016,03,29,01,36,5.20
2016,03,29,01,37,5.10
2016,03,29,01,38,5.10
2016,03,29,01,39,5.10
2016,03,29,01,40,5.20
2016,03,29,01,41,5.20
2016,03,29,01,42,5.20
2016,03,29,01,43,5.20
2016,03,29,01,44,5.20
2016,03,29,01,45,5.20
2016,03,29,01,46,5.20
2016,03,29,01,47,5.20
2016,03,29,01,48,5.20
2016,03,29,01,49,5.20
2016,03,29,01,50,5.20
2016,03,29,01,51,5.20
2016,03,29,01,52,5.20
2016,03,29,01,53,5.20
2016,03,29,01,54,5.20
2016,03,29,01,55,5.20
2016,03,29,01,56,5.20
2016,03,29,01,57,5.20
2016,03,29,01,58,5.20
2016,03,29,01,59,5.30
2016,03,29,02,00,5.30
2016,03,29,02,01,5.50
2016,03,29,02,02,5.70
2016,03,29,02,03,5.80
2016,03,29,02,04,6.00
2016,03,29,02,05,6.20
2016,03,29,02,06,6.40
2016,03,29,02,07,6.50
2016,03,29,02,08,6.60
2016,03,29,02,09,6.70
2016,03,29,02,10,6.80
2016,03,29,02,11,6.90
2016,03,29,02,12,6.90
2016,03,29,02,13,7.00
2016,03,29,02,14,7.00
2016,03,29,02,15,7.10
2016,03,29,02,16,7.10
2016,03,29,02,17,7.20
2016,03,29,02,18,7.20
2016,03,29,02,19,7.30
2016,03,29,02,20,7.40
2016,03,29,02,21,7.40
2016,03,29,02,22,7.50
2016,03,29,02,23,7.60
2016,03,29,02,24,7.70
2016,03,29,02,25,7.70
2016,03,29,02,26,7.80
2016,03,29,02,27,7.90
2016,03,29,02,28,8.00
2016,03,29,02,29,8.10
2016,03,29,02,30,8.20
2016,03,29,02,31,8.30
2016,03,29,02,32,8.30
2016,03,29,02,33,8.30
2016,03,29,02,34,8.40
2016,03,29,02,35,8.40
2016,03,29,02,36,8.50
2016,03,29,02,37,8.50
2016,03,29,02,38,8.50
2016,03,29,02,39,8.60
2016,03,29,02,40,8.60
2016,03,29,02,41,8.60
2016,03,29,02,42,8.70
2016,03,29,02,43,8.70
2016,03,29,02,44,8.70
2016,03,29,02,45,8.80
2016,03,29,02,46,8.80
2016,03,29,02,47,8.90
2016,03,29,02,48,8.90
2016,03,29,02,49,8.90
2016,03,29,02,50,9.00
2016,03,29,02,51,9.00
2016,03,29,02,52,9.10
2016,03,29,02,53,9.10
2016,03,29,02,54,9.10
2016,03,29,02,55,9.10
2016,03,29,02,56,9.10
2016,03,29,02,57,9.10
2016,03,29,02,58,9.10
2016,03,29,02,59,9.10
2016,03,29,03,00,9.10
2016,03,29,03,01,9.10
2016,03,29,03,02,9.10
2016,03,29,03,03,9.10
2016,03,29,03,04,9.10
2016,03,29,03,05,9.10
2016,03,29,03,06,9.10
2016,03,29,03,07,9.10
2016,03,29,03,08,9.10
2016,03,29,03,09,9.10
2016,03,29,03,10,9.10
2016,03,29,03,11,9.10
2016,03,29,03,12,9.10
2016,03,29,03,13,9.10
2016,03,29,03,14,9.10
2016,03,29,03,15,9.10
2016,03,29,03,16,9.10
2016,03,29,03,17,9.10
2016,03,29,03,18,9.10
2016,03,29,03,19,9.10
2016,03,29,03,20,9.10
2016,03,29,03,21,9.10
2016,03,29,03,22,9.00
2016,03,29,03,23,9.00
2016,03,29,03,24,9.00
2016,03,29,03,25,9.00
2016,03,29,03,26,9.00
2016,03,29,03,27,9.00
2016,03,29,03,28,9.00
2016,03,29,03,29,9.00
2016,03,29,03,30,9.00
2016,03,29,03,31,9.00
2016,03,29,03,32,9.00
2016,03,29,03,33,9.00
2016,03,29,03,34,9.00
2016,03,29,03,35,9.00
2016,03,29,03,36,9.00
2016,03,29,03,37,8.90
2016,03,29,03,38,8.90
2016,03,29,03,39,8.90
2016,03,29,03,40,8.90
2016,03,29,03,41,8.90
2016,03,29,03,42,8.90
2016,03,29,03,43,8.90
2016,03,29,03,44,8.90
2016,03,29,03,45,8.90
2016,03,29,03,46,9.00
2016,03,29,03,47,8.90
2016,03,29,03,48,9.00
2016,03,29,03,49,9.00
2016,03,29,03,50,9.00
2016,03,29,03,51,9.00
2016,03,29,03,52,9.00
2016,03,29,03,53,9.00
2016,03,29,03,54,9.00
2016,03,29,03,55,9.00
2016,03,29,03,56,9.00
2016,03,29,03,57,9.00
2016,03,29,03,58,9.00
2016,03,29,03,59,9.00
2016,03,29,04,00,9.00
2016,03,29,04,01,9.00
2016,03,29,04,02,9.00
2016,03,29,04,03,9.00
2016,03,29,04,04,9.00
2016,03,29,04,05,9.00
2016,03,29,04,06,9.00
2016,03,29,04,07,9.00
2016,03,29,04,08,8.90
2016,03,29,04,09,8.90
2016,03,29,04,10,8.90
2016,03,29,04,11,8.90
2016,03,29,04,12,8.90
2016,03,29,04,13,8.90
2016,03,29,04,14,8.90
2016,03,29,04,15,8.80
2016,03,29,04,16,8.80
2016,03,29,04,17,8.80
2016,03,29,04,18,8.80
2016,03,29,04,19,8.80
2016,03,29,04,20,8.70
2016,03,29,04,21,8.70
2016,03,29,04,22,8.70
2016,03,29,04,23,8.70
2016,03,29,04,24,8.70
2016,03,29,04,25,8.70
2016,03,29,04,26,8.60
2016,03,29,04,27,8.60
2016,03,29,04,28,8.60
2016,03,29,04,29,8.60
2016,03,29,04,30,8.60
2016,03,29,04,31,8.60
2016,03,29,04,32,8.50
2016,03,29,04,33,8.50
2016,03,29,04,34,8.50
2016,03,29,04,35,8.50
2016,03,29,04,36,8.50
2016,03,29,04,37,8.50
2016,03,29,04,38,8.50
2016,03,29,04,39,8.50
2016,03,29,04,40,8.50
2016,03,29,04,41,8.50
2016,03,29,04,42,8.40
2016,03,29,04,43,8.40
2016,03,29,04,44,8.40
2016,03,29,04,45,8.40
2016,03,29,04,46,8.40
2016,03,29,04,47,8.40
2016,03,29,04,48,8.40
2016,03,29,04,49,8.40
2016,03,29,04,50,8.40
2016,03,29,04,51,8.30
2016,03,29,04,52,8.30
2016,03,29,04,53,8.30
2016,03,29,04,54,8.30
2016,03,29,04,55,8.30
2016,03,29,04,56,8.30
2016,03,29,04,57,8.30
2016,03,29,04,58,8.20
2016,03,29,04,59,8.20
2016,03,29,05,00,8.20
2016,03,29,05,01,8.20
2016,03,29,05,02,8.20
2016,03,29,05,03,8.20
2016,03,29,05,04,8.20
2016,03,29,05,05,8.20
2016,03,29,05,06,8.20
2016,03,29,05,07,8.20
2016,03,29,05,08,8.20
2016,03,29,05,09,8.10
2016,03,29,05,10,8.10
2016,03,29,05,11,8.10
2016,03,29,05,12,8.10
2016,03,29,05,13,8.10
2016,03,29,05,14,8.10
2016,03,29,05,15,8.10
2016,03,29,05,16,8.10
2016,03,29,05,17,8.10
2016,03,29,05,18,8.10
2016,03,29,05,19,8.10
2016,03,29,05,20,8.10
2016,03,29,05,21,8.10
2016,03,29,05,22,8.10
2016,03,29,05,23,8.10
2016,03,29,05,24,8.10
2016,03,29,05,25,8.10
2016,03,29,05,26,8.10
2016,03,29,05,27,8.10
2016,03,29,05,28,8.10
2016,03,29,05,29,8.10
2016,03,29,05,30,8.10
2016,03,29,05,31,8.00
2016,03,29,05,32,8.00
2016,03,29,05,33,8.00
2016,03,29,05,34,8.00
2016,03,29,05,35,8.00
2016,03,29,05,36,7.90
2016,03,29,05,37,8.00
2016,03,29,05,38,7.90
2016,03,29,05,39,7.90
2016,03,29,05,40,7.90
2016,03,29,05,41,7.90
2016,03,29,05,42,7.90
2016,03,29,05,43,7.90
2016,03,29,05,44,7.90
2016,03,29,05,45,7.90
2016,03,29,05,46,7.90
2016,03,29,05,47,7.90
2016,03,29,05,48,7.90
2016,03,29,05,49,7.90
2016,03,29,05,50,7.90
2016,03,29,05,51,7.90
2016,03,29,05,52,7.90
2016,03,29,05,53,7.90
2016,03,29,05,54,7.90
2016,03,29,05,55,7.90
2016,03,29,05,56,7.90
2016,03,29,05,57,7.90
2016,03,29,05,58,7.90
2016,03,29,05,59,7.90
2016,03,29,06,00,7.90
2016,03,29,06,01,7.90
2016,03,29,06,02,7.90
2016,03,29,06,03,7.80
2016,03,29,06,04,7.80
2016,03,29,06,05,7.80
2016,03,29,06,06,7.80
2016,03,29,06,07,7.80
2016,03,29,06,08,7.80
2016,03,29,06,09,7.80
2016,03,29,06,10,7.80
2016,03,29,06,11,7.80
2016,03,29,06,12,7.80
2016,03,29,06,13,7.80
2016,03,29,06,14,7.80
2016,03,29,06,15,7.80
2016,03,29,06,16,7.80
2016,03,29,06,17,7.80
2016,03,29,06,18,7.80
2016,03,29,06,19,7.80
2016,03,29,06,20,7.70
2016,03,29,06,21,7.60
2016,03,29,06,22,7.50
2016,03,29,06,23,7.40
2016,03,29,06,24,7.30
2016,03,29,06,25,7.10
2016,03,29,06,26,7.00
2016,03,29,06,27,6.80
2016,03,29,06,28,6.70
2016,03,29,06,29,6.60
2016,03,29,06,30,6.40
2016,03,29,06,31,6.30
2016,03,29,06,32,6.20
2016,03,29,06,33,6.20
2016,03,29,06,34,6.10
2016,03,29,06,35,6.00
2016,03,29,06,36,5.90
2016,03,29,06,37,5.80
2016,03,29,06,38,5.80
2016,03,29,06,39,5.70
2016,03,29,06,40,5.70
2016,03,29,06,41,5.70
2016,03,29,06,42,5.60
2016,03,29,06,43,5.60
2016,03,29,06,44,5.60
2016,03,29,06,45,5.60
2016,03,29,06,46,5.60
2016,03,29,06,47,5.60
2016,03,29,06,48,5.50
2016,03,29,06,49,5.50
2016,03,29,06,50,5.50
2016,03,29,06,51,5.50
2016,03,29,06,52,5.50
2016,03,29,06,53,5.40
2016,03,29,06,54,5.40
2016,03,29,06,55,5.40
2016,03,29,06,56,5.40
2016,03,29,06,57,5.40
2016,03,29,06,58,5.50
2016,03,29,06,59,5.50
2016,03,29,07,00,5.50
2016,03,29,07,01,5.60
2016,03,29,07,02,5.60
2016,03,29,07,03,5.60
2016,03,29,07,04,5.60
2016,03,29,07,05,5.60
2016,03,29,07,06,5.60
2016,03,29,07,07,5.60
2016,03,29,07,08,5.50
2016,03,29,07,09,5.50
2016,03,29,07,10,5.50
2016,03,29,07,11,5.50
2016,03,29,07,12,5.50
2016,03,29,07,13,5.60
2016,03,29,07,14,5.60
2016,03,29,07,15,5.60
2016,03,29,07,16,5.60
2016,03,29,07,17,5.70
2016,03,29,07,18,5.80
2016,03,29,07,19,5.80
2016,03,29,07,20,5.90
2016,03,29,07,21,6.00
2016,03,29,07,22,6.00
2016,03,29,07,23,6.10
2016,03,29,07,24,6.10
2016,03,29,07,25,6.20
2016,03,29,07,26,6.20
2016,03,29,07,27,6.30
2016,03,29,07,28,6.40
2016,03,29,07,29,6.50
2016,03,29,07,30,6.50
2016,03,29,07,31,6.70
2016,03,29,07,32,6.80
2016,03,29,07,33,6.90
2016,03,29,07,34,7.00
2016,03,29,07,35,7.20
2016,03,29,07,36,7.30
2016,03,29,07,37,7.40
2016,03,29,07,38,7.50
2016,03,29,07,39,7.70
2016,03,29,07,40,7.80
2016,03,29,07,41,7.90
2016,03,29,07,42,8.10
2016,03,29,07,43,8.20
2016,03,29,07,44,8.30
2016,03,29,07,45,8.40
2016,03,29,07,46,8.60
2016,03,29,07,47,8.70
2016,03,29,07,48,8.80
2016,03,29,07,49,8.90
2016,03,29,07,50,9.00
2016,03,29,07,51,9.10
2016,03,29,07,52,9.20
2016,03,29,07,53,9.30
2016,03,29,07,54,9.30
2016,03,29,07,55,9.40
2016,03,29,07,56,9.50
2016,03,29,07,57,9.50
2016,03,29,07,58,9.60
2016,03,29,07,59,9.70
2016,03,29,08,00,9.70
2016,03,29,08,01,9.80
2016,03,29,08,02,9.80
2016,03,29,08,03,9.90
2016,03,29,08,04,10.00
2016,03,29,08,05,10.10
2016,03,29,08,06,10.10
2016,03,29,08,07,10.20
2016,03,29,08,08,10.20
2016,03,29,08,09,10.20
2016,03,29,08,10,10.30
2016,03,29,08,11,10.30
2016,03,29,08,12,10.30
2016,03,29,08,13,10.30
2016,03,29,08,14,10.30
2016,03,29,08,15,10.40
2016,03,29,08,16,10.40
2016,03,29,08,17,10.40
2016,03,29,08,18,10.40
2016,03,29,08,19,10.40
2016,03,29,08,20,10.40
2016,03,29,08,21,10.50
2016,03,29,08,22,10.50
2016,03,29,08,23,10.50
2016,03,29,08,24,10.40
2016,03,29,08,25,10.40
2016,03,29,08,26,10.40
2016,03,29,08,27,10.40
2016,03,29,08,28,10.40
2016,03,29,08,29,10.40
2016,03,29,08,30,10.30
2016,03,29,08,31,10.20
2016,03,29,08,32,10.20
2016,03,29,08,33,10.20
2016,03,29,08,34,10.10
2016,03,29,08,35,10.00
2016,03,29,08,36,10.00
2016,03,29,08,37,9.90
2016,03,29,08,38,9.90
2016,03,29,08,39,9.80
2016,03,29,08,40,9.80
2016,03,29,08,41,9.90
2016,03,29,08,42,9.90
2016,03,29,08,43,9.90
2016,03,29,08,44,10.00
2016,03,29,08,45,10.00
2016,03,29,08,46,10.00
2016,03,29,08,47,10.00
2016,03,29,08,48,10.00
2016,03,29,08,49,10.00
2016,03,29,08,50,10.00
2016,03,29,08,51,10.00
2016,03,29,08,52,10.00
2016,03,29,08,53,10.00
2016,03,29,08,54,10.00
2016,03,29,08,55,10.00
2016,03,29,08,56,10.10
2016,03,29,08,57,10.10
2016,03,29,08,58,10.10
2016,03,29,08,59,10.10
2016,03,29,09,00,10.00
2016,03,29,09,01,10.00
2016,03,29,09,02,9.90
2016,03,29,09,03,9.90
2016,03,29,09,04,9.90
2016,03,29,09,05,9.90
2016,03,29,09,06,10.00
2016,03,29,09,07,10.00
2016,03,29,09,08,10.00
2016,03,29,09,09,10.10
2016,03,29,09,10,10.10
2016,03,29,09,11,10.10
2016,03,29,09,12,10.20
2016,03,29,09,13,10.30
2016,03,29,09,14,10.30
2016,03,29,09,15,10.30
2016,03,29,09,16,10.40
2016,03,29,09,17,10.40
2016,03,29,09,18,10.50
2016,03,29,09,19,10.60
2016,03,29,09,20,10.60
2016,03,29,09,21,10.70
2016,03,29,09,22,10.70
2016,03,29,09,23,10.70
2016,03,29,09,24,10.80
2016,03,29,09,25,10.80
2016,03,29,09,26,10.80
2016,03,29,09,27,10.80
2016,03,29,09,28,10.80
2016,03,29,09,29,10.80
2016,03,29,09,30,10.80
2016,03,29,09,31,10.80
2016,03,29,09,32,10.80
2016,03,29,09,33,10.80
2016,03,29,09,34,10.80
2016,03,29,09,35,10.80
2016,03,29,09,36,10.80
2016,03,29,09,37,10.80
2016,03,29,09,38,10.80
2016,03,29,09,39,10.80
2016,03,29,09,40,10.80
2016,03,29,09,41,10.80
2016,03,29,09,42,10.80
2016,03,29,09,43,10.80
2016,03,29,09,44,10.80
2016,03,29,09,45,10.80
2016,03,29,09,46,10.80
2016,03,29,09,47,10.80
2016,03,29,09,48,10.80
2016,03,29,09,49,10.80
2016,03,29,09,50,10.80
2016,03,29,09,51,10.90
2016,03,29,09,52,10.90
2016,03,29,09,53,10.80
2016,03,29,09,54,10.90
2016,03,29,09,55,10.90
2016,03,29,09,56,10.90
2016,03,29,09,57,10.90
2016,03,29,09,58,10.90
2016,03,29,09,59,10.90
2016,03,29,10,00,10.90
2016,03,29,10,01,10.90
2016,03,29,10,02,10.90
2016,03,29,10,03,10.90
2016,03,29,10,04,10.90
2016,03,29,10,05,10.90
2016,03,29,10,06,10.90
2016,03,29,10,07,10.90
2016,03,29,10,08,10.90
2016,03,29,10,09,10.90
2016,03,29,10,10,10.90
2016,03,29,10,11,10.90
2016,03,29,10,12,10.90
2016,03,29,10,13,10.90
2016,03,29,10,14,10.90
2016,03,29,10,15,10.90
2016,03,29,10,16,10.90
2016,03,29,10,17,11.00
2016,03,29,10,18,11.00
2016,03,29,10,19,11.10
2016,03,29,10,20,11.10
2016,03,29,10,21,11.10
2016,03,29,10,22,11.10
2016,03,29,10,23,11.20
2016,03,29,10,24,11.20
2016,03,29,10,25,11.20
2016,03,29,10,26,11.20
2016,03,29,10,27,11.20
2016,03,29,10,28,11.20
2016,03,29,10,29,11.20
2016,03,29,10,30,11.20
2016,03,29,10,31,11.20
2016,03,29,10,32,11.30
2016,03,29,10,33,11.30
2016,03,29,10,34,11.30
2016,03,29,10,35,11.30
2016,03,29,10,36,11.30
2016,03,29,10,37,11.30
2016,03,29,10,38,11.30
2016,03,29,10,39,11.30
2016,03,29,10,40,11.40
2016,03,29,10,41,11.40
2016,03,29,10,42,11.40
2016,03,29,10,43,11.40
2016,03,29,10,44,11.50
2016,03,29,10,45,11.50
2016,03,29,10,46,11.50
2016,03,29,10,47,11.50
2016,03,29,10,48,11.60
2016,03,29,10,49,11.60
2016,03,29,10,50,11.60
2016,03,29,10,51,11.60
2016,03,29,10,52,11.70
2016,03,29,10,53,11.70
2016,03,29,10,54,11.70
2016,03,29,10,55,11.70
2016,03,29,10,56,11.70
2016,03,29,10,57,11.80
2016,03,29,10,58,11.80
2016,03,29,10,59,11.80
2016,03,29,11,00,11.80
2016,03,29,11,01,11.80
2016,03,29,11,02,11.80
2016,03,29,11,03,11.80
2016,03,29,11,04,11.80
2016,03,29,11,05,11.90
2016,03,29,11,06,11.90
2016,03,29,11,07,11.90
2016,03,29,11,08,11.90
2016,03,29,11,09,12.00
2016,03,29,11,10,12.00
2016,03,29,11,11,12.00
2016,03,29,11,12,12.00
2016,03,29,11,13,12.00
2016,03,29,11,14,12.00
2016,03,29,11,15,12.10
2016,03,29,11,16,12.10
2016,03,29,11,17,12.10
2016,03,29,11,18,12.10
2016,03,29,11,19,12.10
2016,03,29,11,20,12.10
2016,03,29,11,21,12.10
2016,03,29,11,22,12.10
2016,03,29,11,23,12.10
2016,03,29,11,24,12.10
2016,03,29,11,25,12.10
2016,03,29,11,26,12.10
2016,03,29,11,27,12.10
2016,03,29,11,28,12.10
2016,03,29,11,29,12.10
2016,03,29,11,30,12.20
2016,03,29,11,31,12.20
2016,03,29,11,32,12.20
2016,03,29,11,33,12.20
2016,03,29,11,34,12.30
2016,03,29,11,35,12.30
2016,03,29,11,36,12.30
2016,03,29,11,37,12.30
2016,03,29,11,38,12.30
2016,03,29,11,39,12.30
2016,03,29,11,40,12.30
2016,03,29,11,41,12.30
2016,03,29,11,42,12.30
2016,03,29,11,43,12.30
2016,03,29,11,44,12.30
2016,03,29,11,45,12.40
2016,03,29,11,46,12.40
2016,03,29,11,47,12.40
2016,03,29,11,48,12.40
2016,03,29,11,49,12.40
2016,03,29,11,50,12.40
2016,03,29,11,51,12.40
2016,03,29,11,52,12.40
2016,03,29,11,53,12.40
2016,03,29,11,54,12.40
2016,03,29,11,55,12.40
2016,03,29,11,56,12.40
2016,03,29,11,57,12.50
2016,03,29,11,58,12.50
2016,03,29,11,59,12.50
2016,03,29,12,00,12.50
2016,03,29,12,01,12.50
2016,03,29,12,02,12.50
2016,03,29,12,03,12.50
2016,03,29,12,04,12.50
2016,03,29,12,05,12.40
2016,03,29,12,06,12.40
2016,03,29,12,07,12.40
2016,03,29,12,08,12.40
2016,03,29,12,09,12.40
2016,03,29,12,10,12.40
2016,03,29,12,11,12.40
2016,03,29,12,12,12.40
2016,03,29,12,13,12.30
2016,03,29,12,14,12.30
2016,03,29,12,15,12.30
2016,03,29,12,16,12.30
2016,03,29,12,17,12.30
2016,03,29,12,18,12.30
2016,03,29,12,19,12.30
2016,03,29,12,20,12.30
2016,03,29,12,21,12.30
2016,03,29,12,22,12.30
2016,03,29,12,23,12.30
2016,03,29,12,24,12.30
2016,03,29,12,25,12.30
2016,03,29,12,26,12.40
2016,03,29,12,27,12.40
2016,03,29,12,28,12.50
2016,03,29,12,29,12.60
2016,03,29,12,30,12.70
2016,03,29,12,31,12.70
2016,03,29,12,32,12.80
2016,03,29,12,33,12.80
2016,03,29,12,34,12.90
2016,03,29,12,35,13.00
2016,03,29,12,36,13.00
2016,03,29,12,37,13.10
2016,03,29,12,38,13.20
2016,03,29,12,39,13.20
2016,03,29,12,40,13.20
2016,03,29,12,41,13.30
2016,03,29,12,42,13.30
2016,03,29,12,43,13.40
2016,03,29,12,44,13.40
2016,03,29,12,45,13.40
2016,03,29,12,46,13.50
2016,03,29,12,47,13.50
2016,03,29,12,48,13.60
2016,03,29,12,49,13.60
2016,03,29,12,50,13.60
2016,03,29,12,51,13.60
2016,03,29,12,52,13.70
2016,03,29,12,53,13.70
2016,03,29,12,54,13.70
2016,03,29,12,55,13.70
2016,03,29,12,56,13.70
2016,03,29,12,57,13.80
2016,03,29,12,58,13.80
2016,03,29,12,59,13.80
2016,03,29,13,00,13.80
2016,03,29,13,01,13.80
2016,03,29,13,02,13.80
2016,03,29,13,03,13.80
2016,03,29,13,04,13.90
2016,03,29,13,05,13.90
2016,03,29,13,06,13.90
2016,03,29,13,07,13.90
2016,03,29,13,08,13.90
2016,03,29,13,09,13.90
2016,03,29,13,10,13.90
2016,03,29,13,11,13.90
2016,03,29,13,12,13.80
2016,03,29,13,13,13.90
2016,03,29,13,14,13.80
2016,03,29,13,15,13.80
2016,03,29,13,16,13.80
2016,03,29,13,17,13.80
2016,03,29,13,18,13.80
2016,03,29,13,19,13.80
2016,03,29,13,20,13.80
2016,03,29,13,21,13.80
2016,03,29,13,22,13.90
2016,03,29,13,23,13.90
2016,03,29,13,24,14.00
2016,03,29,13,25,14.00
2016,03,29,13,26,14.00
2016,03,29,13,27,14.00
2016,03,29,13,28,14.10
2016,03,29,13,29,14.10
2016,03,29,13,30,14.10
2016,03,29,13,31,14.10
2016,03,29,13,32,14.10
2016,03,29,13,33,14.20
2016,03,29,13,34,14.20
2016,03,29,13,35,14.20
2016,03,29,13,36,14.30
2016,03,29,13,37,14.30
2016,03,29,13,38,14.30
2016,03,29,13,39,14.40
2016,03,29,13,40,14.40
2016,03,29,13,41,14.40
2016,03,29,13,42,14.40
2016,03,29,13,43,14.40
2016,03,29,13,44,14.40
2016,03,29,13,45,14.50
2016,03,29,13,46,14.50
2016,03,29,13,47,14.50
2016,03,29,13,48,14.50
2016,03,29,13,49,14.50
2016,03,29,13,50,14.60
2016,03,29,13,51,14.60
2016,03,29,13,52,14.60
2016,03,29,13,53,14.60
2016,03,29,13,54,14.60
2016,03,29,13,55,14.60
2016,03,29,13,56,14.60
2016,03,29,13,57,14.70
2016,03,29,13,58,14.70
2016,03,29,13,59,14.70
2016,03,29,14,00,14.70
2016,03,29,14,01,14.80
2016,03,29,14,02,14.80
2016,03,29,14,03,14.80
2016,03,29,14,04,14.80
2016,03,29,14,05,14.80
2016,03,29,14,06,14.80
2016,03,29,14,07,14.80
2016,03,29,14,08,14.80
2016,03,29,14,09,14.80
2016,03,29,14,10,14.90
2016,03,29,14,11,14.90
2016,03,29,14,12,14.90
2016,03,29,14,13,14.90
2016,03,29,14,14,14.90
2016,03,29,14,15,14.90
2016,03,29,14,16,14.90
2016,03,29,14,17,14.90
2016,03,29,14,18,14.90
2016,03,29,14,19,14.90
2016,03,29,14,20,14.80
2016,03,29,14,21,14.80
2016,03,29,14,22,14.80
2016,03,29,14,23,14.80
2016,03,29,14,24,14.80
2016,03,29,14,25,14.80
2016,03,29,14,26,14.80
2016,03,29,14,27,14.80
2016,03,29,14,28,14.80
2016,03,29,14,29,14.80
2016,03,29,14,30,14.80
2016,03,29,14,31,14.80
2016,03,29,14,32,14.80
2016,03,29,14,33,14.80
2016,03,29,14,34,14.80
2016,03,29,14,35,14.80
2016,03,29,14,36,14.70
2016,03,29,14,37,14.70
2016,03,29,14,38,14.70
2016,03,29,14,39,14.70
2016,03,29,14,40,14.60
2016,03,29,14,41,14.60
2016,03,29,14,42,14.60
2016,03,29,14,43,14.60
2016,03,29,14,44,14.60
2016,03,29,14,45,14.60
2016,03,29,14,46,14.60
2016,03,29,14,47,14.60
2016,03,29,14,48,14.60
2016,03,29,14,49,14.60
2016,03,29,14,50,14.60
2016,03,29,14,51,14.60
2016,03,29,14,52,14.60
2016,03,29,14,53,14.60
2016,03,29,14,54,14.70
2016,03,29,14,55,14.70
2016,03,29,14,56,14.70
2016,03,29,14,57,14.70
2016,03,29,14,58,14.70
2016,03,29,14,59,14.70
2016,03,29,15,00,14.70
2016,03,29,15,01,14.70
2016,03,29,15,02,14.70
2016,03,29,15,03,14.70
2016,03,29,15,04,14.70
2016,03,29,15,05,14.70
2016,03,29,15,06,14.70
2016,03,29,15,07,14.70
2016,03,29,15,08,14.70
2016,03,29,15,09,14.70
2016,03,29,15,10,14.70
2016,03,29,15,11,14.70
2016,03,29,15,12,14.70
2016,03,29,15,13,14.80
2016,03,29,15,14,14.80
2016,03,29,15,15,14.80
2016,03,29,15,16,14.80
2016,03,29,15,17,14.80
2016,03,29,15,18,14.80
2016,03,29,15,19,14.80
2016,03,29,15,20,14.80
2016,03,29,15,21,14.90
2016,03,29,15,22,14.90
2016,03,29,15,23,14.90
2016,03,29,15,24,14.90
2016,03,29,15,25,15.00
2016,03,29,15,26,15.00
2016,03,29,15,27,15.00
2016,03,29,15,28,15.00
2016,03,29,15,29,15.00
2016,03,29,15,30,15.10
2016,03,29,15,31,15.10
2016,03,29,15,32,15.10
2016,03,29,15,33,15.20
2016,03,29,15,34,15.20
2016,03,29,15,35,15.20
2016,03,29,15,36,15.20
2016,03,29,15,37,15.30
2016,03,29,15,38,15.30
2016,03,29,15,39,15.30
2016,03,29,15,40,15.30
2016,03,29,15,41,15.30
2016,03,29,15,42,15.30
2016,03,29,15,43,15.30
2016,03,29,15,44,15.40
2016,03,29,15,45,15.40
2016,03,29,15,46,15.40
2016,03,29,15,47,15.40
2016,03,29,15,48,15.40
2016,03,29,15,49,15.40
2016,03,29,15,50,15.40
2016,03,29,15,51,15.40
2016,03,29,15,52,15.40
2016,03,29,15,53,15.30
2016,03,29,15,54,15.20
2016,03,29,15,55,15.10
2016,03,29,15,56,15.10
2016,03,29,15,57,15.10
2016,03,29,15,58,15.10
2016,03,29,15,59,15.20
2016,03,29,16,00,15.20
2016,03,29,16,01,15.20
2016,03,29,16,02,15.20
2016,03,29,16,03,15.30
2016,03,29,16,04,15.30
2016,03,29,16,05,15.30
2016,03,29,16,06,15.40
2016,03,29,16,07,15.50
2016,03,29,16,08,15.50
2016,03,29,16,09,15.60
2016,03,29,16,10,15.60
2016,03,29,16,11,15.70
2016,03,29,16,12,15.80
2016,03,29,16,13,15.80
2016,03,29,16,14,15.80
2016,03,29,16,15,15.90
2016,03,29,16,16,15.90
2016,03,29,16,17,15.90
2016,03,29,16,18,15.90
2016,03,29,16,19,16.00
2016,03,29,16,20,16.00
2016,03,29,16,21,16.00
2016,03,29,16,22,15.90
2016,03,29,16,23,15.80
2016,03,29,16,24,15.80
2016,03,29,16,25,15.80
2016,03,29,16,26,15.80
2016,03,29,16,27,15.80
2016,03,29,16,28,15.80
2016,03,29,16,29,15.80
2016,03,29,16,30,15.70
2016,03,29,16,31,15.60
2016,03,29,16,32,15.60
2016,03,29,16,33,15.50
2016,03,29,16,34,15.40
2016,03,29,16,35,15.40
2016,03,29,16,36,15.30
2016,03,29,16,37,15.20
2016,03,29,16,38,15.10
2016,03,29,16,39,15.00
2016,03,29,16,40,14.90
2016,03,29,16,41,14.80
2016,03,29,16,42,14.80
2016,03,29,16,43,14.80
2016,03,29,16,44,14.80
2016,03,29,16,45,14.80
2016,03,29,16,46,14.80
2016,03,29,16,47,14.70
2016,03,29,16,48,14.70
2016,03,29,16,49,14.60
2016,03,29,16,50,14.60
2016,03,29,16,51,14.50
2016,03,29,16,52,14.40
2016,03,29,16,53,14.30
2016,03,29,16,54,14.10
2016,03,29,16,55,14.00
2016,03,29,16,56,13.90
2016,03,29,16,57,13.90
2016,03,29,16,58,13.90
2016,03,29,16,59,13.90
2016,03,29,17,00,14.00
2016,03,29,17,01,14.00
2016,03,29,17,02,13.90
2016,03,29,17,03,14.00
2016,03,29,17,04,14.00
2016,03,29,17,05,14.10
2016,03,29,17,06,14.20
2016,03,29,17,07,14.30
2016,03,29,17,08,14.40
2016,03,29,17,09,14.40
2016,03,29,17,10,14.50
2016,03,29,17,11,14.50
2016,03,29,17,12,14.50
2016,03,29,17,13,14.50
2016,03,29,17,14,14.60
2016,03,29,17,15,14.60
2016,03,29,17,16,14.70
2016,03,29,17,17,14.70
2016,03,29,17,18,14.80
2016,03,29,17,19,14.80
2016,03,29,17,20,14.80
2016,03,29,17,21,14.70
2016,03,29,17,22,14.70
2016,03,29,17,23,14.70
2016,03,29,17,24,14.70
2016,03,29,17,25,14.70
2016,03,29,17,26,14.70
2016,03,29,17,27,14.80
2016,03,29,17,28,14.80
2016,03,29,17,29,14.80
2016,03,29,17,30,14.80
2016,03,29,17,31,14.90
2016,03,29,17,32,14.90
2016,03,29,17,33,15.00
2016,03,29,17,34,15.00
2016,03,29,17,35,14.90
2016,03,29,17,36,14.80
2016,03,29,17,37,14.70
2016,03,29,17,38,14.70
2016,03,29,17,39,14.60
2016,03,29,17,40,14.50